Theta_e
356 355 353 352 352 353 352 350 349 350 350 350 350 350 350 348 348 347 346 346 346 346 346 345 345 345 346 347 348 349 348 349 350 349 349 348 345 346 348 350 350 350
355 355 354 352 352 353 352 350 349 350 349 350 350 349 350 349 347 347 346 346 346 346 346 346 345 346 346 347 348 349 349 349 349 349 349 348 346 346 348 350 351 351
355 355 355 353 353 353 352 350 349 349 349 349 349 349 350 349 348 347 346 346 346 346 346 345 345 345 346 348 349 350 350 349 348 348 349 349 348 347 348 351 351 351
354 355 355 353 353 353 352 351 351 351 351 350 350 350 350 349 348 348 348 347 347 346 346 346 345 345 346 348 349 350 350 349 348 349 349 350 348 347 348 351 351 351
354 355 355 353 353 353 353 353 353 353 353 352 351 350 349 350 349 350 349 349 349 348 347 347 346 344 345 348 350 350 350 349 349 349 350 350 349 348 348 350 350 350
354 354 354 353 353 353 353 353 353 353 352 351 351 350 350 350 350 350 350 350 350 349 349 348 347 346 345 346 348 349 350 349 349 349 350 350 350 349 349 350 350 350
354 354 354 354 354 353 353 352 353 353 352 351 351 351 350 349 349 349 349 350 350 350 350 350 350 349 348 348 348 348 349 349 349 348 349 350 350 350 350 350 351 351
354 355 355 354 354 354 353 353 353 354 353 353 353 351 350 349 348 348 349 349 350 350 351 351 350 350 349 349 349 348 349 349 349 349 348 349 350 351 351 351 352 352
355 355 355 355 354 354 354 353 353 353 353 354 354 352 352 350 348 348 348 348 349 349 350 350 350 350 349 349 349 348 349 349 350 350 349 349 349 350 351 351 352 352
356 355 354 354 354 354 354 352 352 353 353 354 354 353 353 352 351 350 348 348 349 349 349 349 349 349 349 349 348 349 349 350 350 351 350 350 349 349 350 351 351 352
356 356 355 355 354 354 354 352 351 353 353 353 354 354 353 353 352 352 350 350 349 349 349 348 349 349 349 350 349 349 350 351 351 351 351 351 350 349 349 349 351 351
356 355 354 355 354 354 355 351 349 352 354 353 354 355 354 354 353 353 353 352 351 350 350 349 349 348 349 349 349 349 349 350 351 352 352 352 351 351 351 350 350 350
354 354 353 354 354 354 355 351 349 352 354 354 354 355 355 355 354 354 354 354 353 352 352 352 351 349 348 348 348 348 348 349 350 351 351 351 352 351 352 351 350 350
353 353 353 353 354 354 354 352 350 352 354 354 354 355 355 355 354 354 354 355 354 354 354 354 353 352 350 349 349 349 348 347 347 349 349 350 351 351 351 351 351 350
352 353 353 353 354 354 355 354 352 352 353 354 354 354 354 355 355 355 355 355 354 355 354 354 353 353 352 351 351 349 348 348 347 346 347 348 349 350 350 351 351 350
353 353 353 353 353 353 353 354 354 353 354 354 354 354 354 354 354 355 355 355 355 355 355 354 354 353 353 352 351 349 349 350 350 348 348 348 348 349 350 350 350 350
352 352 352 352 351 350 351 352 353 353 354 353 353 353 353 354 354 355 355 355 356 355 355 355 354 354 353 353 353 351 351 352 352 352 352 351 350 349 348 349 349 350
351 351 351 350 350 349 349 351 352 352 353 353 353 352 352 353 353 353 354 354 355 355 355 355 354 354 354 354 354 353 351 351 352 353 352 351 351 350 349 349 349 349
351 350 350 349 350 349 349 351 351 352 352 351 352 351 351 352 352 352 353 353 354 354 354 354 354 354 354 354 354 353 351 351 352 352 352 352 351 350 349 349 349 349
353 353 353 352 351 349 349 351 351 352 352 351 351 350 351 352 352 352 353 353 353 353 353 354 354 353 353 352 352 353 352 351 351 351 351 351 351 349 348 348 349 349
356 356 356 355 353 352 352 352 352 352 352 351 350 351 351 352 351 352 353 353 353 353 353 354 353 352 352 351 351 352 352 352 351 350 350 350 349 349 348 347 348 348
357 357 356 356 354 353 353 352 352 352 351 351 351 351 351 352 352 353 352 352 353 353 353 353 352 351 351 351 351 351 351 351 350 350 349 348 348 347 347 347 347 347
358 357 356 356 354 353 353 352 352 352 351 351 352 352 352 352 352 352 352 352 353 353 353 352 351 351 351 351 351 351 350 350 350 348 347 346 346 346 345 345 346 345
357 356 356 355 354 354 354 353 353 353 353 352 351 351 352 352 353 353 353 353 354 353 353 352 351 351 351 350 349 349 349 349 348 347 346 345 344 345 345 345 346 346
354 354 354 355 355 355 355 355 355 354 354 353 351 351 352 353 352 352 352 353 354 353 352 352 352 351 350 349 348 348 349 348 347 346 345 345 345 345 345 345 346 346
352 353 353 354 355 356 355 355 355 355 355 355 354 353 354 354 353 351 352 353 353 353 352 352 352 351 349 349 349 348 348 347 346 346 345 345 345 345 345 345 345 345
Wind_Speed
27 25 24 25 24 23 23 22 20 20 20 19 19 19 18 17 17 19 21 22 22 22 22 22 22 22 22 22 20 20 21 20 18 17 17 18 18 18 18 18 16 15
26 25 25 25 25 24 24 23 20 19 19 19 18 17 17 17 17 18 19 21 22 23 22 22 22 22 22 22 21 21 21 21 20 19 19 19 19 19 19 18 17 17
25 25 24 25 26 25 25 23 19 18 18 18 19 18 17 17 16 17 17 19 21 22 22 22 22 22 22 22 22 22 22 22 22 20 20 21 20 21 21 19 18 18
25 24 24 25 26 24 23 21 19 18 18 18 19 18 17 17 16 16 16 17 19 20 22 22 22 22 22 22 22 23 23 22 22 21 21 22 21 21 22 20 19 18
24 24 23 24 25 25 22 20 18 17 17 17 17 18 18 17 16 16 16 17 18 19 20 21 22 22 23 22 22 23 24 23 22 21 22 23 22 22 22 22 20 19
22 23 23 23 25 26 24 23 21 17 14 15 17 18 19 18 17 17 17 17 17 18 19 20 20 21 22 23 23 24 25 25 23 22 22 23 23 22 22 23 22 21
21 22 22 22 24 25 25 24 21 15 13 14 17 19 19 19 18 17 17 16 16 16 18 19 20 21 21 22 23 25 26 27 26 24 24 24 24 24 24 23 23 22
20 21 21 21 22 24 24 22 17 14 17 19 19 18 19 19 18 17 17 17 17 16 16 18 21 22 21 21 23 24 25 27 27 27 27 26 25 25 25 24 24 24
20 20 20 20 20 22 24 20 16 18 22 21 18 17 18 19 20 20 19 20 21 21 20 21 22 22 23 24 25 25 25 26 27 28 28 28 28 27 26 25 25 25
21 20 20 20 20 21 22 19 18 22 24 21 19 19 19 19 19 20 20 21 22 22 22 23 23 24 24 25 26 25 25 26 27 28 28 29 29 29 28 27 26 27
21 21 20 21 20 21 21 18 17 21 24 22 22 21 21 21 20 20 21 22 23 21 20 21 23 25 26 26 25 25 25 26 28 28 28 28 29 30 30 29 29 29
21 21 21 21 20 20 20 17 16 20 23 22 22 21 20 20 20 21 22 22 22 21 20 20 22 25 26 26 26 26 26 26 28 29 29 29 29 30 30 30 30 30
20 20 19 19 19 19 19 16 17 20 21 20 20 20 20 20 20 21 21 20 20 20 20 21 22 24 25 25 26 27 26 25 25 26 27 29 30 30 30 31 31 31
19 18 17 17 17 17 17 16 16 18 19 18 19 21 21 21 21 20 20 20 20 20 21 21 22 24 25 25 25 25 25 22 21 23 25 27 29 31 31 31 32 32
17 16 15 15 15 15 15 15 15 16 17 18 19 20 20 20 20 20 20 20 20 20 20 21 22 23 23 24 23 22 21 20 24 28 28 27 28 29 30 31 32 32
17 17 15 15 14 14 14 14 14 15 16 17 17 18 19 19 19 19 20 20 20 20 20 21 22 21 21 21 20 18 17 19 25 29 30 30 30 30 30 30 31 32
18 17 16 16 15 14 14 14 13 14 16 16 17 17 17 18 18 19 19 19 20 20 21 21 21 21 20 19 18 16 17 21 25 27 28 30 32 32 32 32 32 32
18 18 17 16 15 14 14 13 13 14 15 16 17 18 17 18 19 19 19 19 20 21 21 21 22 21 20 20 19 18 21 23 25 26 27 28 29 31 33 33 33 33
18 17 16 15 15 14 13 13 14 15 15 16 16 16 17 19 19 19 19 19 20 21 21 21 21 21 21 21 20 21 22 23 25 26 27 28 29 30 31 32 33 33
16 16 15 14 13 13 13 14 15 16 16 16 16 17 18 19 19 20 20 20 20 21 21 21 21 21 20 20 20 20 21 22 24 26 27 29 30 30 30 31 32 33
14 14 14 13 13 13 14 15 16 17 17 17 17 18 19 19 19 20 20 20 21 21 21 21 21 19 18 18 18 18 19 21 22 24 27 29 30 31 30 30 31 33
14 14 14 13 13 13 14 16 16 17 18 18 18 18 19 19 20 21 21 21 21 20 20 21 19 18 17 18 18 18 19 20 21 23 27 29 30 32 32 32 33 35
14 14 14 14 13 14 15 16 17 18 18 19 19 20 20 20 21 21 21 20 20 19 19 20 19 18 17 18 18 18 19 20 21 23 27 29 30 31 32 33 35 36
13 14 14 14 14 15 16 16 17 17 18 19 19 20 20 21 21 21 20 19 18 18 19 19 20 19 18 18 18 18 18 19 21 23 26 30 31 31 32 33 35 37
11 12 14 15 16 16 16 17 16 17 18 19 19 19 19 20 20 20 19 18 18 18 18 19 21 20 19 19 19 18 18 19 20 22 25 28 29 29 30 32 33 35
8 12 14 16 17 17 16 16 17 17 17 18 19 18 18 18 18 19 19 19 19 19 19 20 21 21 20 20 19 18 18 18 20 22 25 27 28 28 28 29 30 32
Wind_Direction
229 232 234 236 239 242 241 236 232 229 229 229 229 233 235 233 230 229 229 231 233 236 239 240 239 238 238 235 234 230 226 228 230 231 237 246 252 254 254 255 259 261
229 233 236 238 240 243 241 237 235 234 234 235 236 237 239 237 232 230 231 232 233 237 241 242 242 243 242 238 236 231 227 229 231 233 239 246 253 254 252 254 259 263
231 235 237 239 240 241 239 236 236 238 240 240 240 239 240 239 235 233 233 234 236 238 241 243 245 246 244 241 239 234 230 231 233 236 242 248 254 254 251 254 259 263
237 239 241 240 238 237 238 235 234 237 239 241 242 240 240 240 238 237 238 238 239 240 241 244 247 246 243 242 242 238 234 235 238 240 245 250 255 254 251 252 258 261
242 242 243 242 235 234 235 234 233 236 239 241 240 237 234 232 232 235 240 243 244 244 243 244 246 246 244 244 245 242 239 240 242 244 247 250 253 254 252 252 256 259
244 244 244 243 237 234 234 235 238 240 241 239 237 234 231 230 230 229 234 240 244 246 246 245 246 248 248 247 246 245 244 245 247 248 248 250 253 255 254 253 254 256
247 248 247 245 240 236 235 237 237 237 237 238 238 237 236 236 236 231 229 233 238 242 244 243 243 244 247 248 249 248 246 247 250 251 251 252 254 256 256 254 253 254
251 251 251 247 241 237 235 233 227 227 236 238 237 237 238 237 235 232 229 227 227 231 237 242 243 242 242 243 246 248 248 248 249 249 251 252 253 255 256 254 254 253
252 251 250 246 241 238 234 225 216 228 238 239 238 238 239 237 234 234 233 231 231 229 230 237 243 243 241 239 238 239 244 249 249 247 248 250 251 253 255 255 254 253
250 248 246 243 240 239 234 219 214 230 238 240 242 241 239 236 234 235 236 236 237 234 231 234 239 241 242 242 241 240 241 246 248 248 247 248 249 251 253 254 253 253
249 245 243 243 241 241 235 216 212 232 238 237 241 242 240 237 233 234 235 236 238 237 234 236 240 242 243 243 244 244 244 246 248 248 249 250 250 251 252 252 252 252
251 247 245 245 243 244 239 217 211 234 239 235 238 242 241 237 233 233 236 237 239 238 237 239 241 242 241 240 240 241 242 244 246 248 250 252 252 252 252 251 251 251
256 252 249 249 246 247 244 225 219 239 244 238 238 241 241 239 236 235 236 236 237 236 236 240 241 240 240 240 241 241 242 244 247 249 251 252 252 253 253 253 252 251
256 255 253 252 250 249 248 235 226 238 248 244 239 240 244 245 241 240 240 240 239 239 240 241 241 241 241 240 242 243 244 248 251 250 250 252 252 252 252 252 252 252
253 253 251 251 251 248 248 241 230 233 242 244 241 241 246 248 246 245 244 244 244 243 244 244 244 244 244 244 245 245 246 250 251 249 247 248 250 251 250 249 249 250
251 251 250 249 247 245 245 242 235 231 235 242 243 243 244 247 248 247 245 245 245 243 243 244 246 249 250 250 249 246 248 252 252 251 249 246 247 248 247 247 247 247
252 251 250 249 247 245 243 239 235 231 231 237 241 243 244 245 247 247 246 246 246 246 246 246 249 254 257 259 258 250 248 251 251 253 253 248 246 246 246 247 247 247
258 255 252 250 249 248 243 236 234 233 232 235 239 242 245 245 245 246 247 248 248 248 250 251 254 258 260 261 260 252 246 247 248 252 255 253 250 248 247 248 248 248
265 260 256 257 256 254 249 240 236 236 235 237 240 243 245 244 245 247 247 248 249 249 251 253 255 259 259 258 257 254 251 248 248 252 255 256 255 252 250 250 250 249
263 261 261 265 265 260 256 250 246 244 241 241 243 243 243 243 244 246 246 247 248 249 251 254 257 259 261 260 258 258 258 254 252 254 256 257 258 257 254 253 252 250
252 255 260 265 267 265 262 258 255 253 250 248 246 244 243 244 243 244 245 245 247 250 252 255 258 260 262 263 262 261 261 259 258 259 259 259 260 260 258 255 254 253
250 252 256 260 261 261 262 261 259 258 255 253 251 248 246 245 244 244 245 247 250 251 250 253 258 262 263 265 266 265 263 261 260 261 262 262 262 262 261 259 257 255
259 256 256 259 258 257 258 260 260 260 260 257 255 254 253 251 250 251 252 254 254 253 253 256 261 264 266 267 267 266 263 261 260 261 264 264 264 262 262 261 260 258
271 267 264 263 261 261 262 264 263 262 263 263 260 259 259 259 259 259 260 261 260 261 262 265 268 270 271 270 269 267 263 262 262 263 265 267 267 267 265 263 261 259
278 269 266 263 262 265 267 267 268 269 270 270 269 267 267 267 265 264 264 264 265 267 269 268 271 275 276 274 274 272 268 266 265 265 265 268 270 269 268 265 262 259
277 256 250 250 253 260 267 270 270 271 273 273 274 274 272 272 270 267 265 266 267 268 268 267 270 275 278 279 279 278 275 271 268 266 266 269 272 271 270 268 264 260